period_start,C,m1,H,J0,J1,J2,J3,J4,J5,JA,JB,JC,JD,JJ,JK,JN,#
2014-02-06 00:00:46,0.25,2.12,0.00,22.69,27.45,30.53,6.18,26.75,1038.81,2038.99,2714.06,2744.13,2977.22,351.87,333.15,8.51,0000 0000 0000 0000 000000
2014-02-06 00:01:46,0.17,2.12,0.00,22.70,27.45,30.55,6.14,26.88,1038.92,2038.99,2713.55,2744.03,2977.08,350.02,331.43,8.51,0000 0000 0000 0000 000000
2014-02-06 00:02:46,0.14,2.12,0.00,22.70,27.45,30.55,6.17,26.79,1038.99,2038.99,2713.18,2743.79,2976.93,349.44,330.91,8.52,0000 0000 0000 0000 000000
2014-02-06 00:03:47,0.20,2.12,0.00,22.69,27.45,30.55,6.03,26.79,1039.03,2038.99,2712.87,2743.33,2976.48,349.12,330.75,8.53,0000 0000 0000 0000 000000
2014-02-06 00:04:47,0.24,2.12,0.00,22.70,27.45,30.57,6.13,27.00,1039.00,2038.99,2712.37,2743.12,2976.18,349.65,331.34,8.53,0000 0000 0000 0000 000000
2014-02-06 00:05:47,0.17,2.12,0.00,22.69,27.45,30.53,6.02,26.83,1038.93,2038.99,2712.13,2743.01,2976.06,349.71,331.14,8.54,0000 0000 0000 0000 000000
2014-02-06 00:06:47,0.09,2.12,0.00,22.70,27.45,30.54,6.13,27.04,1038.97,2038.99,2711.71,2742.61,2975.81,349.84,331.28,8.54,0000 0000 0000 0000 000000
2014-02-06 00:07:48,0.25,2.12,0.00,22.70,27.45,30.54,6.19,26.96,1038.98,2038.99,2711.27,2742.22,2975.37,350.15,331.56,8.55,0000 0000 0000 0000 000000
2014-02-06 00:08:48,0.23,2.13,0.00,22.69,27.45,30.54,6.11,26.83,1038.96,2038.99,2711.08,2742.08,2975.12,350.15,331.95,8.56,0000 0000 0000 0000 000000
2014-02-06 00:09:48,0.11,2.13,0.00,22.69,27.45,30.53,6.13,26.67,1038.99,2038.99,2710.69,2742.00,2974.99,351.03,332.41,8.56,0000 0000 0000 0000 000000
2014-02-06 00:10:49,0.13,2.13,0.00,22.69,27.45,30.54,6.13,26.83,1039.02,2038.99,2710.25,2741.73,2974.52,350.68,332.08,8.57,0000 0000 0000 0000 000000
2014-02-06 00:11:49,0.23,2.13,0.00,22.69,27.45,30.55,6.19,26.88,1039.05,2038.99,2710.00,2741.30,2974.19,350.08,331.53,8.57,0000 0000 0000 0000 000000
2014-02-06 00:12:49,0.21,2.13,0.00,22.69,27.44,30.53,6.14,26.88,1039.06,2038.99,2709.46,2741.12,2974.06,350.16,331.61,8.58,0000 0000 0000 0000 000000
2014-02-06 00:13:50,0.15,2.13,0.00,22.70,27.44,30.52,6.08,26.96,1039.06,2038.99,2709.13,2740.98,2973.90,349.65,331.51,8.58,0000 0000 0000 0000 000000
2014-02-06 00:14:50,0.14,2.13,0.00,22.70,27.44,30.53,6.14,26.88,1039.08,2038.99,2708.62,2740.61,2973.44,350.61,332.04,8.59,0000 0000 0000 0000 000000
2014-02-06 00:15:50,0.26,2.13,0.00,22.69,27.44,30.51,6.16,26.79,1039.08,2038.99,2708.20,2740.23,2973.17,350.37,331.81,8.60,0000 0000 0000 0000 000000
2014-02-06 00:16:50,0.21,2.13,0.00,22.69,27.44,30.52,6.06,26.96,1039.08,2038.99,2707.76,2740.08,2973.06,348.96,330.49,8.60,0000 0000 0000 0000 000000
2014-02-06 00:17:51,0.15,2.14,0.00,22.70,27.44,30.54,6.06,26.88,1039.08,2038.99,2707.28,2739.97,2972.93,349.78,331.25,8.61,0000 0000 0000 0000 000000
2014-02-06 00:18:51,0.14,2.14,0.00,22.70,27.44,30.55,6.16,26.88,1039.08,2038.99,2707.01,2739.54,2972.52,349.97,331.43,8.61,0000 0000 0000 0000 000000
2014-02-06 00:19:51,0.27,2.14,0.00,22.69,27.43,30.53,6.11,27.04,1039.08,2038.99,2706.46,2739.19,2972.20,349.21,330.71,8.62,0000 0000 0000 0000 000000
2014-02-06 00:20:52,0.21,2.14,0.00,22.69,27.43,30.53,6.23,27.08,1039.08,2038.99,2706.04,2739.07,2972.07,349.89,331.36,8.63,0000 0000 0000 0000 000000
2014-02-06 00:21:52,0.14,2.14,0.00,22.70,27.43,30.55,6.11,27.00,1039.08,2039.00,2705.44,2738.76,2971.87,349.96,331.71,8.63,0000 0000 0000 0000 000000
2014-02-06 00:22:52,0.26,2.14,0.00,22.72,27.42,30.53,6.21,26.79,1039.08,2039.01,2705.13,2738.29,2971.38,350.80,332.20,8.64,0000 0000 0000 0000 000000
2014-02-06 00:23:53,0.23,2.14,0.00,22.72,27.43,30.53,5.94,26.75,1039.08,2039.00,2704.68,2738.10,2971.13,348.37,329.89,8.64,0000 0000 0000 0000 000000
2014-02-06 00:24:53,0.17,2.14,0.00,22.72,27.42,30.53,6.11,27.08,1039.08,2039.00,2704.26,2737.86,2970.88,350.25,331.83,8.65,0000 0000 0000 0000 000000
2014-02-06 00:25:53,0.21,2.15,0.00,22.72,27.42,30.54,6.23,27.00,1039.08,2039.00,2703.91,2737.42,2970.41,350.18,331.63,8.65,0000 0000 0000 0000 000000
2014-02-06 00:26:53,0.26,2.15,0.00,22.72,27.42,30.54,6.11,26.96,1039.08,2039.00,2703.39,2737.15,2970.15,349.70,331.21,8.66,0000 0000 0000 0000 000000
2014-02-06 00:27:54,0.18,2.15,0.00,22.72,27.42,30.55,6.13,27.04,1039.09,2039.01,2703.12,2737.05,2970.01,349.83,331.50,8.67,0000 0000 0000 0000 000000
2014-02-06 00:28:54,0.09,2.15,0.00,22.72,27.42,30.54,6.21,26.88,1039.09,2039.01,2702.62,2736.77,2969.60,351.29,332.66,8.67,0000 0000 0000 0000 000000
2014-02-06 00:29:54,0.29,2.15,0.00,22.72,27.42,30.54,5.98,26.71,1039.09,2039.03,2702.23,2736.31,2969.23,349.19,330.66,8.68,0000 0000 0000 0000 000000
2014-02-06 00:30:54,0.23,2.15,0.00,22.72,27.42,30.52,6.11,27.00,1039.08,2039.03,2701.94,2736.11,2969.08,349.93,331.37,8.68,0000 0000 0000 0000 000000
2014-02-06 00:31:54,0.16,2.15,0.00,22.72,27.42,30.50,6.13,27.04,1039.08,2039.06,2701.39,2736.02,2968.94,348.86,330.69,8.69,0000 0000 0000 0000 000000
2014-02-06 00:32:55,0.16,2.15,0.00,22.72,27.42,30.53,6.08,26.79,1039.08,2039.13,2701.13,2735.76,2968.48,350.62,331.17,8.70,0000 0000 0000 0000 000000
2014-02-06 00:33:55,0.29,2.16,0.00,22.72,27.42,30.53,6.21,27.13,1039.08,2039.14,2700.73,2735.32,2968.15,349.89,331.47,8.70,0000 0000 0000 0000 000000
2014-02-06 00:34:55,0.23,2.16,0.00,22.72,27.42,30.57,6.17,26.92,1039.08,2039.07,2700.27,2735.11,2967.92,350.66,332.06,8.71,0000 0000 0000 0000 000000
2014-02-06 00:35:55,0.11,2.16,0.00,22.70,27.42,30.55,6.18,27.08,1039.08,2039.05,2700.04,2734.84,2967.41,349.76,331.23,8.71,0000 0000 0000 0000 000000
2014-02-06 00:36:56,0.21,2.16,0.00,22.71,27.42,30.52,6.13,26.96,1039.09,2039.05,2699.56,2734.38,2967.15,349.52,331.00,8.72,0000 0000 0000 0000 000000
2014-02-06 00:37:56,0.25,2.16,0.00,22.72,27.42,30.52,6.20,26.96,1039.10,2039.05,2699.21,2734.14,2966.96,350.69,331.80,8.73,0000 0000 0000 0000 000000
2014-02-06 00:38:56,0.18,2.16,0.00,22.72,27.42,30.52,6.18,26.96,1039.11,2039.11,2699.01,2734.04,2966.49,350.64,332.06,8.73,0000 0000 0000 0000 000000
2014-02-06 00:39:56,0.17,2.16,0.00,22.72,27.42,30.49,6.02,26.92,1039.10,2039.10,2698.49,2733.83,2966.18,349.35,330.83,8.74,0000 0000 0000 0000 000000
2014-02-06 00:40:57,0.22,2.16,0.00,22.72,27.42,30.50,6.10,26.83,1039.10,2039.08,2698.17,2733.34,2966.07,350.20,331.64,8.74,0000 0000 0000 0000 000000
2014-02-06 00:41:57,0.18,2.16,0.00,22.70,27.42,30.52,6.13,27.04,1039.13,2039.09,2697.83,2733.12,2965.82,349.93,331.40,8.75,0000 0000 0000 0000 000000
2014-02-06 00:42:57,0.18,2.17,0.00,22.70,27.42,30.55,6.23,27.08,1039.11,2039.07,2697.34,2732.98,2965.34,350.50,331.95,8.75,0000 0000 0000 0000 000000
2014-02-06 00:43:57,0.18,2.17,0.00,22.70,27.42,30.51,6.19,27.04,1039.10,2039.11,2697.11,2732.56,2965.11,351.13,332.54,8.76,0000 0000 0000 0000 000000
2014-02-06 00:44:57,0.21,2.17,0.00,22.70,27.42,30.52,6.26,27.21,1039.09,2039.11,2697.00,2732.22,2964.83,350.72,332.16,8.77,0000 0000 0000 0000 000000
2014-02-06 00:45:58,0.16,2.17,0.00,22.70,27.42,30.52,6.12,26.79,1039.12,2039.09,2696.54,2732.08,2964.33,350.15,331.67,8.77,0000 0000 0000 0000 000000
2014-02-06 00:46:58,0.20,2.17,0.00,22.70,27.42,30.52,6.20,27.08,1039.10,2039.08,2696.19,2731.90,2964.09,349.88,331.61,8.78,0000 0000 0000 0000 000000
2014-02-06 00:47:58,0.14,2.17,0.00,22.70,27.42,30.53,6.03,26.96,1039.10,2039.05,2696.05,2731.49,2963.60,349.42,330.43,8.78,0000 0000 0000 0000 000000
2014-02-06 00:48:58,0.18,2.17,0.00,22.71,27.42,30.52,6.13,26.71,1039.09,2039.03,2695.90,2731.19,2963.23,350.24,331.69,8.79,0000 0000 0000 0000 000000
2014-02-06 00:49:59,0.16,2.17,0.00,22.72,27.42,30.51,6.13,27.00,1039.08,2039.04,2695.44,2731.06,2963.06,349.94,331.39,8.80,0000 0000 0000 0000 000000
2014-02-06 00:50:59,0.14,2.17,0.00,22.72,27.42,30.52,6.13,27.00,1039.09,2039.03,2695.16,2730.97,2962.71,349.94,331.38,8.80,0000 0000 0000 0000 000000
2014-02-06 00:51:59,0.13,2.17,0.00,22.72,27.42,30.52,6.23,27.17,1039.08,2039.02,2695.05,2730.67,2962.28,350.40,331.70,8.81,0000 0000 0000 0000 000000
2014-02-06 00:52:59,0.16,2.18,0.00,22.72,27.42,30.51,6.11,26.92,1039.08,2039.00,2694.79,2730.29,2962.08,350.36,331.78,8.81,0000 0000 0000 0000 000000
2014-02-06 00:53:59,0.17,2.18,0.00,22.72,27.42,30.52,6.15,26.96,1039.08,2039.02,2694.34,2730.10,2961.72,350.16,331.59,8.82,0000 0000 0000 0000 000000
2014-02-06 00:55:00,0.21,2.18,0.00,22.71,27.42,30.52,6.32,27.17,1039.08,2039.03,2694.12,2730.03,2961.27,350.84,332.30,8.82,0000 0000 0000 0000 000000
2014-02-06 00:56:00,0.11,2.18,0.00,22.71,27.42,30.51,6.16,26.58,1039.08,2039.02,2693.93,2729.71,2961.09,351.31,332.41,8.83,0000 0000 0000 0000 000000
2014-02-06 00:57:00,0.17,2.18,0.00,22.72,27.42,30.51,6.12,27.17,1039.08,2039.01,2693.44,2729.26,2960.77,350.88,332.27,8.84,0000 0000 0000 0000 000000
2014-02-06 00:58:00,0.25,2.18,0.00,22.72,27.42,30.52,6.15,26.79,1039.08,2039.00,2693.16,2729.09,2960.31,348.94,330.44,8.84,0000 0000 0000 0000 000000
2014-02-06 00:59:01,0.16,2.18,0.00,22.72,27.42,30.54,6.16,27.04,1039.08,2039.00,2692.98,2729.01,2960.11,349.52,330.98,8.85,0000 0000 0000 0000 000000
2014-02-06 01:00:01,0.07,2.18,0.00,22.72,27.42,30.54,6.21,27.13,1039.09,2039.00,2692.52,2728.71,2959.99,350.49,331.91,8.85,0000 0000 0000 0000 000000
2014-02-06 01:01:01,0.23,2.18,0.00,22.72,27.42,30.54,6.22,26.96,1039.09,2039.00,2692.19,2728.29,2959.57,350.50,331.92,8.86,0000 0000 0000 0000 000000
2014-02-06 01:02:01,0.24,2.18,0.00,22.72,27.42,30.50,6.34,27.04,1039.08,2039.00,2691.98,2728.10,2959.21,350.72,332.12,8.87,0000 0000 0000 0000 000000
2014-02-06 01:03:02,0.13,2.19,0.00,22.71,27.42,30.52,6.13,26.92,1039.08,2039.00,2691.53,2728.02,2959.07,350.34,331.30,8.87,0000 0000 0000 0000 000000
2014-02-06 01:04:02,0.12,2.19,0.00,22.71,27.42,30.54,6.20,26.79,1039.08,2039.00,2691.20,2727.84,2958.81,350.91,332.31,8.88,0000 0000 0000 0000 000000
2014-02-06 01:05:02,0.18,2.19,0.00,22.72,27.42,30.52,6.18,27.04,1039.08,2039.00,2691.07,2727.37,2958.32,349.34,330.81,8.88,0000 0000 0000 0000 000000
2014-02-06 01:06:02,0.23,2.19,0.00,22.72,27.42,30.52,6.03,26.75,1039.08,2039.00,2690.69,2727.13,2958.11,350.03,331.66,8.89,0000 0000 0000 0000 000000
2014-02-06 01:07:02,0.17,2.19,0.00,22.72,27.42,30.53,6.06,26.96,1039.08,2039.00,2690.27,2727.04,2957.97,348.73,330.23,8.89,0000 0000 0000 0000 000000
2014-02-06 01:08:02,0.10,2.19,0.00,22.72,27.42,30.53,6.06,26.96,1039.08,2039.00,2690.09,2726.88,2957.57,349.74,331.19,8.90,0000 0000 0000 0000 000000
2014-02-06 01:09:02,0.18,2.19,0.00,22.74,27.42,30.53,6.25,27.08,1039.09,2039.01,2689.78,2726.43,2957.22,350.55,331.76,8.91,0000 0000 0000 0000 000000
2014-02-06 01:10:03,0.26,2.19,0.00,22.72,27.42,30.53,6.03,26.96,1039.09,2039.01,2689.32,2726.15,2957.05,348.44,330.30,8.91,0000 0000 0000 0000 000000
2014-02-06 01:11:03,0.15,2.19,0.00,22.72,27.42,30.51,6.33,27.13,1039.08,2039.00,2689.10,2726.03,2956.70,350.63,332.12,8.92,0000 0000 0000 0000 000000
2014-02-06 01:12:03,0.12,2.19,0.00,22.73,27.42,30.51,6.14,27.04,1039.08,2039.00,2688.63,2725.62,2956.28,349.61,330.96,8.92,0000 0000 0000 0000 000000
2014-02-06 01:13:03,0.31,2.20,0.00,22.73,27.42,30.51,6.17,26.88,1039.08,2039.00,2688.23,2725.24,2956.08,350.20,331.48,8.93,0000 0000 0000 0000 000000
2014-02-06 01:14:03,0.18,2.20,0.00,22.73,27.42,30.52,6.03,26.83,1039.08,2039.00,2688.05,2725.08,2955.72,350.04,331.09,8.94,0000 0000 0000 0000 000000
2014-02-06 01:15:03,0.13,2.20,0.00,22.73,27.42,30.52,6.03,26.96,1039.08,2039.00,2687.67,2725.02,2955.30,349.21,330.72,8.94,0000 0000 0000 0000 000000
2014-02-06 01:16:04,0.16,2.20,0.00,22.72,27.42,30.53,6.14,27.08,1039.08,2039.00,2687.25,2724.75,2955.11,349.43,330.90,8.95,0000 0000 0000 0000 000000
2014-02-06 01:17:04,0.20,2.20,0.00,22.73,27.42,30.53,6.06,27.04,1039.09,2039.00,2687.05,2724.30,2954.89,349.52,330.98,8.95,0000 0000 0000 0000 000000
2014-02-06 01:18:04,0.19,2.20,0.00,22.72,27.42,30.52,6.04,27.00,1039.08,2039.00,2686.54,2724.11,2954.38,349.28,330.81,8.96,0000 0000 0000 0000 000000
2014-02-06 01:19:04,0.24,2.20,0.00,22.72,27.42,30.53,6.27,27.08,1039.10,2039.00,2686.19,2723.93,2954.14,349.89,331.34,8.97,0000 0000 0000 0000 000000
2014-02-06 01:20:04,0.14,2.20,0.00,22.72,27.42,30.54,6.09,26.92,1039.09,2039.00,2685.86,2723.47,2953.92,349.60,331.34,8.97,0000 0000 0000 0000 000000
2014-02-06 01:21:04,0.25,2.21,0.00,22.72,27.42,30.51,6.13,26.71,1039.10,2039.00,2685.34,2723.17,2953.45,350.25,331.63,8.98,0000 0000 0000 0000 000000
2014-02-06 01:22:05,0.25,2.21,0.00,22.72,27.42,30.51,6.27,27.13,1039.09,2039.00,2685.07,2723.03,2953.16,350.91,332.13,8.98,0000 0000 0000 0000 000000
2014-02-06 01:23:05,0.11,2.21,0.00,22.73,27.42,30.51,6.19,26.79,1039.09,2039.00,2684.62,2722.78,2953.03,350.38,331.80,8.99,0000 0000 0000 0000 000000
2014-02-06 01:24:05,0.19,2.21,0.00,22.74,27.42,30.53,6.20,26.67,1039.08,2039.00,2684.24,2722.35,2952.68,350.37,331.51,8.99,0000 0000 0000 0000 000000
2014-02-06 01:25:05,0.26,2.21,0.00,22.74,27.42,30.49,6.02,26.67,1039.09,2039.00,2684.00,2722.12,2952.27,350.21,331.62,9.00,0000 0000 0000 0000 000000
2014-02-06 01:26:05,0.14,2.21,0.00,22.74,27.42,30.52,6.16,27.08,1039.09,2039.00,2683.48,2722.00,2952.09,350.44,331.84,9.01,0000 0000 0000 0000 000000
2014-02-06 01:27:06,0.17,2.21,0.00,22.73,27.41,30.54,6.20,26.71,1039.08,2039.00,2683.17,2721.70,2951.90,351.04,332.41,9.01,0000 0000 0000 0000 000000
2014-02-06 01:28:06,0.17,2.21,0.00,22.72,27.42,30.53,6.09,26.88,1039.08,2038.99,2682.79,2721.27,2951.39,349.30,330.78,9.02,0000 0000 0000 0000 000000
2014-02-06 01:29:06,0.28,2.21,0.00,22.72,27.41,30.52,6.18,26.71,1039.09,2038.99,2682.30,2721.09,2951.15,349.79,331.25,9.02,0000 0000 0000 0000 000000
2014-02-06 01:30:06,0.16,2.22,0.00,22.72,27.41,30.52,6.08,26.92,1039.09,2038.99,2682.08,2720.98,2951.03,349.94,331.38,9.03,0000 0000 0000 0000 000000
2014-02-06 01:31:06,0.06,2.22,0.00,22.72,27.41,30.53,6.16,26.88,1039.09,2038.99,2681.74,2720.59,2950.65,350.76,332.16,9.04,0000 0000 0000 0000 000000
2014-02-06 01:32:07,0.29,2.22,0.00,22.72,27.41,30.53,6.11,26.83,1039.09,2038.99,2681.30,2720.22,2950.26,350.44,331.86,9.04,0000 0000 0000 0000 000000
2014-02-06 01:33:07,0.23,2.22,0.00,22.72,27.40,30.51,6.15,26.96,1039.09,2038.99,2681.09,2720.07,2950.09,348.74,330.25,9.05,0000 0000 0000 0000 000000
2014-02-06 01:34:07,0.09,2.22,0.00,22.72,27.40,30.51,6.34,27.13,1039.08,2038.99,2680.63,2719.90,2949.82,350.32,331.75,9.05,0000 0000 0000 0000 000000
2014-02-06 01:35:07,0.21,2.22,0.00,22.72,27.40,30.53,6.21,26.96,1039.08,2038.99,2680.22,2719.45,2949.36,350.28,331.71,9.06,0000 0000 0000 0000 000000
2014-02-06 01:36:07,0.27,2.22,0.00,22.72,27.40,30.51,6.14,26.88,1039.09,2038.99,2679.82,2719.17,2949.13,350.28,331.71,9.06,0000 0000 0000 0000 000000
2014-02-06 01:37:07,0.18,2.22,0.00,22.72,27.40,30.52,6.19,27.13,1039.08,2038.99,2679.33,2719.05,2949.04,350.03,331.47,9.07,0000 0000 0000 0000 000000
2014-02-06 01:38:08,0.12,2.22,0.00,22.72,27.40,30.51,6.13,26.75,1039.08,2038.99,2679.06,2718.86,2948.81,349.26,330.96,9.08,0000 0000 0000 0000 000000
2014-02-06 01:39:08,0.14,2.23,0.00,22.72,27.40,30.49,6.22,27.21,1039.10,2038.99,2678.58,2718.40,2948.38,350.48,331.89,9.08,0000 0000 0000 0000 000000
2014-02-06 01:40:08,0.31,2.23,0.00,22.73,27.40,30.49,6.12,27.08,1039.09,2038.99,2678.19,2718.14,2948.15,350.96,332.34,9.09,0000 0000 0000 0000 000000
2014-02-06 01:41:09,0.16,2.23,0.00,22.74,27.40,30.52,6.15,26.83,1039.08,2038.99,2677.72,2718.04,2948.05,350.18,331.58,9.09,0000 0000 0000 0000 000000
2014-02-06 01:42:09,0.13,2.23,0.00,22.74,27.40,30.52,6.08,26.71,1039.09,2038.99,2677.27,2717.88,2947.99,350.95,332.28,9.10,0000 0000 0000 0000 000000
2014-02-06 01:43:09,0.13,2.23,0.00,22.72,27.40,30.51,6.34,27.17,1039.11,2038.99,2676.94,2717.44,2947.69,350.82,332.39,9.11,0000 0000 0000 0000 000000
2014-02-06 01:44:09,0.24,2.23,0.00,22.72,27.40,30.52,6.21,26.83,1039.10,2038.99,2676.37,2717.16,2947.27,349.94,331.29,9.11,0000 0000 0000 0000 000000
2014-02-06 01:45:10,0.26,2.23,0.00,22.73,27.40,30.50,6.27,27.00,1039.09,2038.99,2676.01,2717.04,2947.09,350.65,331.14,9.12,0000 0000 0000 0000 000000
2014-02-06 01:46:10,0.12,2.23,0.00,22.72,27.40,30.51,6.15,26.92,1039.09,2038.99,2675.45,2716.91,2947.03,350.23,331.98,9.12,0000 0000 0000 0000 000000
2014-02-06 01:47:10,0.15,2.23,0.00,22.72,27.40,30.50,6.17,27.00,1039.11,2039.00,2675.13,2716.47,2946.83,349.95,331.40,9.13,0000 0000 0000 0000 000000
2014-02-06 01:48:10,0.21,2.24,0.00,22.72,27.40,30.50,6.17,27.00,1039.11,2039.00,2674.65,2716.17,2946.36,350.84,332.24,9.13,0000 0000 0000 0000 000000
2014-02-06 01:49:11,0.24,2.24,0.00,22.72,27.40,30.51,6.11,27.04,1039.18,2039.00,2674.24,2716.04,2946.13,349.47,330.96,9.14,0000 0000 0000 0000 000000
2014-02-06 01:50:11,0.13,2.24,0.00,22.72,27.40,30.53,6.13,26.96,1039.25,2039.00,2673.89,2715.84,2946.04,349.85,331.35,9.15,0000 0000 0000 0000 000000
2014-02-06 01:51:11,0.15,2.24,0.00,22.72,27.40,30.52,6.15,27.08,1039.28,2039.00,2673.36,2715.41,2945.96,350.51,331.98,9.15,0000 0000 0000 0000 000000
2014-02-06 01:52:11,0.24,2.24,0.00,22.72,27.40,30.51,6.05,27.21,1039.25,2039.00,2673.11,2715.15,2945.57,349.54,331.06,9.16,0000 0000 0000 0000 000000
2014-02-06 01:53:12,0.19,2.24,0.00,22.74,27.40,30.53,6.17,26.75,1039.27,2039.02,2672.62,2715.04,2945.21,350.90,332.33,9.16,0000 0000 0000 0000 000000
2014-02-06 01:54:12,0.19,2.24,0.00,22.74,27.40,30.53,6.06,26.96,1039.27,2039.05,2672.24,2714.92,2945.07,349.29,330.83,9.17,0000 0000 0000 0000 000000
2014-02-06 01:55:12,0.15,2.24,0.00,22.73,27.40,30.50,6.17,27.08,1039.45,2039.05,2672.08,2714.46,2944.94,349.46,331.03,9.18,0000 0000 0000 0000 000000
2014-02-06 01:56:13,0.20,2.24,0.00,22.74,27.40,30.50,6.11,26.96,1039.54,2039.04,2671.71,2714.17,2944.44,349.93,331.50,9.18,0000 0000 0000 0000 000000
2014-02-06 01:57:13,0.21,2.25,0.00,22.74,27.40,30.53,6.11,26.96,1039.56,2039.03,2671.26,2714.05,2944.16,350.00,331.90,9.19,0000 0000 0000 0000 000000
2014-02-06 01:58:13,0.12,2.25,0.00,22.74,27.40,30.52,6.21,27.29,1039.55,2039.02,2671.05,2713.81,2944.05,350.37,332.03,9.19,0000 0000 0000 0000 000000
2014-02-06 01:59:13,0.13,2.25,0.00,22.74,27.40,30.52,6.17,27.00,1039.56,2039.03,2670.57,2713.37,2943.73,349.58,331.16,9.20,0000 0000 0000 0000 000000
2014-02-06 02:00:13,0.28,2.25,0.00,22.74,27.40,30.52,6.14,27.00,1039.55,2039.04,2670.22,2713.15,2943.32,349.40,331.21,9.20,0000 0000 0000 0000 000000
2014-02-06 02:01:14,0.19,2.25,0.00,22.75,27.40,30.54,6.03,26.92,1039.57,2039.05,2669.96,2713.03,2943.11,348.80,330.42,9.21,0000 0000 0000 0000 000000
2014-02-06 02:02:14,0.13,2.25,0.00,22.74,27.40,30.52,6.12,27.00,1039.57,2039.03,2669.46,2712.77,2942.92,350.31,331.86,9.22,0000 0000 0000 0000 000000
2014-02-06 02:03:14,0.20,2.25,0.00,22.74,27.40,30.55,6.18,27.08,1039.57,2039.05,2669.17,2712.32,2942.49,349.59,331.33,9.22,0000 0000 0000 0000 000000
2014-02-06 02:04:15,0.26,2.25,0.00,22.74,27.40,30.53,6.23,27.00,1039.57,2039.06,2668.87,2712.12,2942.19,351.18,332.70,9.23,0000 0000 0000 0000 000000
2014-02-06 02:05:15,0.16,2.25,0.00,22.74,27.40,30.53,6.03,26.83,1039.57,2039.05,2668.39,2712.01,2942.07,349.78,330.77,9.23,0000 0000 0000 0000 000000
2014-02-06 02:06:15,0.13,2.26,0.00,22.75,27.40,30.54,6.11,26.88,1039.57,2039.06,2668.12,2711.72,2941.81,349.15,330.79,9.24,0000 0000 0000 0000 000000
2014-02-06 02:07:15,0.20,2.26,0.00,22.75,27.40,30.53,6.31,27.13,1039.57,2039.04,2667.72,2711.30,2941.34,351.04,332.41,9.25,0000 0000 0000 0000 000000
2014-02-06 02:08:15,0.23,2.26,0.00,22.74,27.40,30.52,6.00,26.88,1039.57,2039.02,2667.25,2711.10,2941.12,349.19,330.80,9.25,0000 0000 0000 0000 000000
2014-02-06 02:09:16,0.16,2.26,0.00,22.74,27.40,30.52,6.21,27.13,1039.57,2039.06,2666.92,2711.00,2941.03,351.48,332.96,9.26,0000 0000 0000 0000 000000
2014-02-06 02:10:16,0.15,2.26,0.00,22.74,27.40,30.51,6.02,27.08,1039.57,2039.05,2666.40,2710.64,2940.79,349.54,331.12,9.26,0000 0000 0000 0000 000000
2014-02-06 02:11:16,0.21,2.26,0.00,22.74,27.40,30.51,6.24,27.21,1039.57,2039.02,2666.13,2710.26,2940.33,349.89,331.46,9.27,0000 0000 0000 0000 000000
2014-02-06 02:12:16,0.22,2.26,0.00,22.75,27.40,30.52,6.15,26.92,1039.57,2039.02,2665.80,2710.09,2940.11,350.49,332.03,9.28,0000 0000 0000 0000 000000
2014-02-06 02:13:17,0.14,2.26,0.00,22.77,27.40,30.52,6.14,26.67,1039.57,2039.03,2665.36,2710.01,2939.99,350.54,332.05,9.28,0000 0000 0000 0000 000000
2014-02-06 02:14:17,0.14,2.26,0.00,22.77,27.40,30.53,6.17,26.75,1039.57,2039.09,2665.12,2709.68,2939.57,350.16,331.69,9.29,0000 0000 0000 0000 000000
2014-02-06 02:15:17,0.26,2.27,0.00,22.77,27.40,30.53,6.12,27.04,1039.57,2039.08,2664.93,2709.27,2939.22,349.16,330.74,9.29,0000 0000 0000 0000 000000
2014-02-06 02:16:17,0.19,2.27,0.00,22.77,27.40,30.52,6.06,27.00,1039.56,2039.07,2664.49,2709.09,2939.05,349.71,331.26,9.30,0000 0000 0000 0000 000000
2014-02-06 02:17:18,0.15,2.27,0.00,22.77,27.40,30.53,6.17,27.17,1039.55,2039.04,2664.18,2708.97,2938.60,350.02,331.58,9.30,0000 0000 0000 0000 000000
2014-02-06 02:18:18,0.13,2.27,0.00,22.77,27.40,30.54,6.18,26.92,1039.56,2039.04,2664.05,2708.57,2938.22,351.00,332.36,9.31,0000 0000 0000 0000 000000
2014-02-06 02:19:18,0.21,2.27,0.00,22.77,27.40,30.51,6.30,27.21,1039.57,2039.03,2663.72,2708.22,2938.02,350.99,332.47,9.32,0000 0000 0000 0000 000000
2014-02-06 02:20:18,0.18,2.27,0.00,22.79,27.40,30.51,6.08,26.88,1039.57,2039.05,2663.29,2708.08,2937.59,349.93,331.34,9.32,0000 0000 0000 0000 000000
2014-02-06 02:21:18,0.20,2.27,0.00,22.79,27.40,30.52,6.22,27.08,1039.57,2039.04,2663.10,2707.97,2937.22,349.77,331.30,9.33,0000 0000 0000 0000 000000
2014-02-06 02:22:19,0.11,2.27,0.00,22.78,27.40,30.52,6.20,26.83,1039.57,2039.04,2662.99,2707.67,2937.05,349.74,331.28,9.33,0000 0000 0000 0000 000000
2014-02-06 02:23:19,0.15,2.27,0.00,22.78,27.40,30.52,6.08,26.83,1039.57,2039.02,2662.62,2707.27,2936.59,349.59,331.14,9.34,0000 0000 0000 0000 000000
2014-02-06 02:24:19,0.24,2.28,0.00,22.77,27.40,30.52,6.15,27.25,1039.57,2039.00,2662.24,2707.09,2936.22,349.68,330.87,9.35,0000 0000 0000 0000 000000
2014-02-06 02:25:20,0.16,2.28,0.00,22.77,27.40,30.52,6.14,27.13,1039.57,2039.03,2662.08,2707.02,2936.07,349.42,331.43,9.35,0000 0000 0000 0000 000000
2014-02-06 02:26:20,0.10,2.28,0.00,22.77,27.40,30.52,6.18,27.21,1039.57,2039.02,2662.03,2706.73,2935.83,349.69,331.11,9.36,0000 0000 0000 0000 000000
2014-02-06 02:27:20,0.10,2.28,0.00,22.77,27.40,30.52,6.21,26.96,1039.57,2039.01,2661.81,2706.28,2935.36,350.30,332.31,9.36,0000 0000 0000 0000 000000
2014-02-06 02:28:20,0.26,2.28,0.00,22.79,27.40,30.53,6.16,27.17,1039.57,2039.01,2661.39,2706.10,2935.11,349.97,331.49,9.37,0000 0000 0000 0000 000000
2014-02-06 02:29:20,0.15,2.28,0.00,22.78,27.40,30.52,6.13,27.00,1039.57,2039.00,2661.15,2706.01,2934.84,350.48,331.99,9.37,0000 0000 0000 0000 000000
2014-02-06 02:30:21,0.12,2.28,0.00,22.77,27.40,30.52,6.04,26.92,1039.57,2039.01,2660.96,2705.83,2934.37,349.39,330.96,9.38,0000 0000 0000 0000 000000
2014-02-06 02:31:21,0.19,2.28,0.00,22.77,27.40,30.51,6.12,26.92,1039.57,2039.00,2660.45,2705.38,2934.13,350.87,332.36,9.39,0000 0000 0000 0000 000000
2014-02-06 02:32:21,0.22,2.28,0.00,22.77,27.40,30.51,6.01,26.83,1039.57,2039.00,2660.15,2705.14,2933.97,349.56,331.12,9.39,0000 0000 0000 0000 000000
2014-02-06 02:33:22,0.15,2.28,0.00,22.77,27.40,30.51,6.23,27.00,1039.57,2039.00,2659.93,2705.04,2933.48,349.99,331.32,9.40,0000 0000 0000 0000 000000
2014-02-06 02:34:22,0.16,2.28,0.00,22.77,27.40,30.49,6.22,27.08,1039.56,2039.00,2659.43,2704.80,2933.17,350.52,332.02,9.40,0000 0000 0000 0000 000000
2014-02-06 02:35:22,0.21,2.29,0.00,22.77,27.40,30.52,6.07,26.88,1039.55,2039.00,2659.15,2704.35,2933.03,349.92,331.45,9.41,0000 0000 0000 0000 000000
2014-02-06 02:36:22,0.19,2.29,0.00,22.79,27.40,30.51,6.09,26.88,1039.52,2039.00,2659.03,2704.13,2932.71,349.19,330.73,9.42,0000 0000 0000 0000 000000
2014-02-06 02:37:23,0.13,2.29,0.00,22.79,27.40,30.52,6.13,27.13,1039.54,2039.00,2658.76,2704.05,2932.30,349.61,331.50,9.42,0000 0000 0000 0000 000000